Flag for Netherlands Weather past 2 weeks in Apeldoorn, Netherlands

Now
52 °F

Fog.


Feels Like: 49 °F
Forecast: 45 / 57 °F
Wind: 9 mph from Southwest

Location: Deelen

Current Time: Oct 25, 2014 at 6:21:48 AM

Latest Report: Oct 25, 2014 at 5:55 AM


Visibility: 1 mi

Pressure: 29.98 "Hg

Humidity: 100%

Dew point: 52 °F

Location of ApeldoornLocation

Historic Weather in Apeldoorn — Graph

°F

Apeldoorn temperature yesterday

Maximum temperature yesterday: 54 °F (at 12:25 AM)
Minimum temperature yesterday: 50 °F (at 7:25 AM)
Average temperature yesterday: 52 °F

Past Weeks' High & Low Weather Summary

 TemperatureHumidityPressure
High72 °F (Oct 18, 3:55 PM)100% (Oct 11, 12:55 AM)30.18 "Hg (Oct 11, 12:55 AM)
Low43 °F (Oct 23, 12:25 AM)68% (Oct 10, 1:55 PM)29.45 "Hg (Oct 21, 2:25 PM)
Average55 °F90%29.87 "Hg
* Reported Oct 10 4:25 AM — Oct 25 4:55 AM, Apeldoorn, Weather by CustomWeather, © 2014

Note: Actual official high and low records may vary slightly from our data, if they occured in-between our weather recording intervals... More about our weather records

Advertising

Apeldoorn weather history for previous 24 hours

 ConditionsComfort  
Time TempWeatherWind HumidityBarometerVisibility
4:55 AM
Oct 25
52 °FFog.9 mph100%29.98 "Hg1 mi
4:25 AM52 °FFog.10 mph100%29.98 "Hg1 mi
3:55 AM52 °FFog.10 mph100%29.98 "Hg1 mi
3:25 AM52 °FFog.9 mph100%29.98 "Hg1 mi
2:55 AM52 °FFog.10 mph100%29.98 "Hg2 mi
2:25 AM52 °FFog.12 mph100%29.98 "Hg2 mi
1:55 AM52 °FFog.13 mph100%30.01 "Hg2 mi
1:25 AM52 °FLight rain. Overcast.12 mph100%30.01 "Hg5 mi
12:55 AM52 °FRain. Passing clouds.12 mph100%30.01 "Hg4 mi
12:25 AM52 °FRain. Overcast.12 mph100%30.01 "Hg3 mi
11:55 PM
Oct 24
52 °FPartly cloudy.12 mph100%30.01 "Hg2 mi
11:25 PM52 °FPartly cloudy.12 mph94%30.01 "Hg4 mi
10:55 PM52 °FFog.12 mph100%30.01 "Hg4 mi
10:25 PM52 °FFog.9 mph100%30.01 "Hg4 mi
9:55 PM52 °FFog.9 mph100%30.01 "Hg4 mi
9:25 PM52 °FFog.9 mph100%30.01 "Hg4 mi
8:55 PM52 °FPartly cloudy.9 mph100%30.01 "Hg3 mi
8:25 PM52 °FDrizzle. Overcast.10 mph94%30.01 "Hg3 mi
7:55 PM54 °FLight rain. Overcast.10 mph88%30.01 "Hg5 mi
7:25 PM54 °FMostly cloudy.8 mph88%30.01 "HgN/A
6:55 PM54 °FDrizzle. Overcast.8 mph88%30.01 "HgN/A
6:25 PM54 °FOvercast.9 mph88%30.01 "HgN/A
5:55 PM54 °FOvercast.10 mph88%30.01 "HgN/A
5:25 PM54 °FMostly cloudy.12 mph88%30.04 "HgN/A
4:55 PM54 °FMore clouds than sun.12 mph88%30.04 "HgN/A
4:25 PM54 °FOvercast.10 mph88%30.04 "HgN/A
3:55 PM54 °FMore clouds than sun.12 mph88%30.04 "HgN/A
3:25 PM54 °FDrizzle. Overcast.10 mph88%30.04 "HgN/A
2:55 PM54 °FBroken clouds.13 mph88%30.04 "HgN/A
2:25 PM52 °FCloudy.12 mph94%30.07 "HgN/A
1:55 PM52 °FCloudy.10 mph94%30.07 "HgN/A
1:25 PM52 °FDrizzle. Mostly cloudy.10 mph94%30.09 "Hg6 mi
12:55 PM52 °FDrizzle. Mostly cloudy.9 mph94%30.09 "HgN/A
12:25 PM52 °FLight rain. Mostly cloudy.12 mph88%30.09 "HgN/A
11:55 AM54 °FPartly sunny.12 mph77%30.09 "HgN/A
11:25 AM52 °FPartly sunny.12 mph82%30.09 "HgN/A
10:55 AM52 °FOvercast.12 mph82%30.09 "HgN/A
10:25 AM52 °FPartly sunny.12 mph82%30.09 "HgN/A
9:55 AM52 °FMostly cloudy.12 mph82%30.09 "HgN/A
9:25 AM52 °FMostly cloudy.12 mph82%30.09 "HgN/A
8:55 AM52 °FOvercast.10 mph88%30.09 "HgN/A
8:25 AM52 °FMostly cloudy.10 mph88%30.09 "HgN/A
7:55 AM50 °FOvercast.10 mph94%30.09 "HgN/A
7:25 AM50 °FOvercast.10 mph94%30.09 "HgN/A
6:55 AM52 °FPassing clouds.10 mph82%30.09 "HgN/A
6:25 AM52 °FOvercast.12 mph82%30.09 "HgN/A
Weather by CustomWeather, © 2014

See weather overviewHow to use our weather pages